Location: Catenanuova
(37.5690°N, 14.6870°E)
Time: 21:28:02
(UTC+02:00)

BlueWalker 3 - Pass Details

Date: 18 May 2025
Orbit: 460 x 472 km, 53.2° (Epoch: 16 June)

Event Time Altitude Azimuth Distance (km) Brightness Sun altitude
Rises 23:38:53 0° 315° (NW) 2,495 6.4 -29.7°
Reaches altitude 10° 23:41:04 10° 320° (NW) 1,619 5.3 -29.9°
Enters shadow 23:42:14 19° 325° (NW) 1,166 4.4 -30.0°
